Location: Gro�bocka
(50.8204°N, 11.9702°E)
Time: 14:39:17
(UTC+00:00)

CZ-4 R/B - Pass Details

Date: 29 October 2020
Orbit: 579 x 589 km, 97.8° (Epoch: 29 November)

Event Time Altitude Azimuth Distance (km) Brightness Sun altitude
Rises 17:16:55 0° 162° (SSE) 2,811 7.8 -13.9°
Reaches altitude 10° 17:19:04 10° 162° (SSE) 1,915 6.9 -14.3°
Maximum altitude 17:23:14 83° 75° (ENE) 602 4.4 -14.9°
Drops below altitude 10° 17:27:26 10° 348° (NNW) 1,930 7.2 -15.6°
Sets 17:29:36 0° 347° (NNW) 2,836 8.1 -15.9°
